WXM80 ListenWXM80 Stop

You find our weather info also at:

UK Metoffice

WeatherCloud

Weather Underground

Northeastern Weather Network

AWEKAS

Citizen Weather Observer Program (CWOP)

HAMweather, WeatherForYou, PWS Weather


Weather Underground History page Text

Daily Summary for April 30, 2017 Units:  English    Metric   Both
« Previous Day
Next Day »
Daily Weekly Monthly Yearly Custom
  High: Low: Average:
Temperature: 67.1 °F 50.8 °F 57.4 °F
Dew Point: 56.9 °F 40.7 °F 46.9 °F
Humidity: 80 % 54 % 68 %
Wind Speed: 8.0 mph 0.0 mph 2.2 mph
Wind Gust: 15.0 mph - -
Wind:- - ESE
Pressure: 30.24 in 30.07 in -
Precipitation: 0.00 in    
Historical Graphs
 
 
Tabular Data for April 30, 2017
Time Temperature Dew Point Pressure Wind Wind Speed Wind Gust Humidity Rainfall Rate (Hourly)
00:04 67.1 °F 56.6 °F 30.07 in West 0.9 mph 3.5 mph 69 % 0.00 in
00:09 67.0 °F 56.5 °F 30.07 in WNW 0.9 mph 3.5 mph 69 % 0.00 in
00:14 67.0 °F 56.9 °F 30.07 in West 0.5 mph 2.3 mph 70 % 0.00 in
00:19 66.9 °F 56.8 °F 30.07 in WSW 1.1 mph 4.0 mph 70 % 0.00 in
00:24 66.8 °F 56.7 °F 30.07 in WNW 0.4 mph 3.5 mph 70 % 0.00 in
00:29 66.8 °F 56.7 °F 30.07 in West 0.8 mph 4.0 mph 70 % 0.00 in
00:34 66.7 °F 56.6 °F 30.07 in West 1.6 mph 3.5 mph 70 % 0.00 in
00:39 66.6 °F 56.5 °F 30.08 in Calm   2.3 mph 70 % 0.00 in
00:44 66.5 °F 56.4 °F 30.07 in WSW 1.0 mph 2.3 mph 70 % 0.00 in
00:49 66.4 °F 56.7 °F 30.07 in WSW 1.8 mph 3.5 mph 71 % 0.00 in
00:54 66.3 °F 56.2 °F 30.07 in WSW 1.3 mph 3.5 mph 70 % 0.00 in
00:59 66.1 °F 56.0 °F 30.07 in WSW 0.4 mph 1.2 mph 70 % 0.00 in
01:04 65.9 °F 56.2 °F 30.07 in WNW 1.1 mph 5.8 mph 71 % 0.00 in
01:10 65.7 °F 56.0 °F 30.07 in West 1.9 mph 4.6 mph 71 % 0.00 in
01:14 65.6 °F 55.9 °F 30.07 in Calm     71 % 0.00 in
01:20 65.4 °F 55.7 °F 30.08 in West 0.5 mph 2.3 mph 71 % 0.00 in
01:25 65.3 °F 55.7 °F 30.08 in WSW 1.8 mph 3.5 mph 71 % 0.00 in
01:30 65.2 °F 55.9 °F 30.08 in Calm   1.2 mph 72 % 0.00 in
01:35 65.1 °F 55.8 °F 30.08 in Calm     72 % 0.00 in
01:40 65.0 °F 55.8 °F 30.08 in Calm   1.2 mph 72 % 0.00 in
01:45 64.8 °F 55.6 °F 30.08 in SW 0.4 mph 1.2 mph 72 % 0.00 in
01:50 64.6 °F 55.7 °F 30.08 in WSW 1.1 mph 3.5 mph 73 % 0.00 in
01:55 64.5 °F 55.7 °F 30.08 in WSW 1.4 mph 2.3 mph 73 % 0.00 in
02:00 64.3 °F 55.8 °F 30.08 in West 0.4 mph 3.5 mph 74 % 0.00 in
02:05 64.1 °F 55.6 °F 30.08 in West 1.7 mph 3.5 mph 74 % 0.00 in
02:10 63.9 °F 55.4 °F 30.08 in West 2.0 mph 4.0 mph 74 % 0.00 in
02:15 63.8 °F 55.4 °F 30.08 in Calm   3.5 mph 74 % 0.00 in
02:20 63.6 °F 55.2 °F 30.09 in WNW 2.0 mph 4.0 mph 74 % 0.00 in
02:25 63.5 °F 55.1 °F 30.09 in WNW 1.0 mph 5.0 mph 74 % 0.00 in
02:30 63.4 °F 55.0 °F 30.09 in Calm   2.0 mph 74 % 0.00 in
02:35 63.3 °F 54.9 °F 30.09 in Calm   2.0 mph 74 % 0.00 in
02:40 63.1 °F 54.7 °F 30.09 in North 2.0 mph 5.0 mph 74 % 0.00 in
02:45 62.9 °F 54.5 °F 30.09 in North 1.0 mph 3.0 mph 74 % 0.00 in
02:50 62.7 °F 54.3 °F 30.09 in Calm   3.0 mph 74 % 0.00 in
02:55 62.5 °F 54.1 °F 30.09 in NNW 1.0 mph 3.0 mph 74 % 0.00 in
03:01 62.2 °F 54.2 °F 30.10 in North 0.3 mph 3.5 mph 75 % 0.00 in
03:06 61.9 °F 53.9 °F 30.10 in North 0.7 mph 2.3 mph 75 % 0.00 in
03:11 61.8 °F 53.8 °F 30.10 in NNE 0.7 mph 3.5 mph 75 % 0.00 in
03:16 61.6 °F 54.0 °F 30.10 in NNE 2.7 mph 4.6 mph 76 % 0.00 in
03:21 61.4 °F 53.8 °F 30.09 in NNE 3.7 mph 5.8 mph 76 % 0.00 in
03:26 61.2 °F 53.2 °F 30.10 in North 0.8 mph 2.3 mph 75 % 0.00 in
03:31 61.0 °F 53.0 °F 30.11 in NNE 4.0 mph 6.9 mph 75 % 0.00 in
03:36 60.5 °F 50.7 °F 30.11 in NNE 6.3 mph 13.0 mph 70 % 0.00 in
03:41 60.1 °F 46.6 °F 30.11 in NNE 8.0 mph 12.7 mph 61 % 0.00 in
03:46 60.0 °F 47.4 °F 30.11 in North 3.8 mph 7.0 mph 63 % 0.00 in
03:51 59.9 °F 48.9 °F 30.11 in NNE 3.6 mph 8.1 mph 67 % 0.00 in
03:56 59.7 °F 49.5 °F 30.11 in NE 3.6 mph 6.9 mph 69 % 0.00 in
04:01 59.3 °F 48.3 °F 30.12 in NNE 5.2 mph 9.0 mph 67 % 0.00 in
04:07 59.1 °F 47.7 °F 30.12 in NNE 2.4 mph 5.0 mph 66 % 0.00 in
04:12 58.9 °F 48.0 °F 30.11 in NE 4.4 mph 6.0 mph 67 % 0.00 in
04:17 58.7 °F 48.2 °F 30.12 in NNE 4.0 mph 6.9 mph 68 % 0.00 in
04:22 58.6 °F 48.1 °F 30.12 in NNE 3.3 mph 6.0 mph 68 % 0.00 in
04:27 58.4 °F 48.3 °F 30.13 in North 5.5 mph 8.1 mph 69 % 0.00 in
04:32 58.2 °F 47.7 °F 30.13 in NNE 3.7 mph 4.6 mph 68 % 0.00 in
04:34 58.1 °F 47.2 °F 30.13 in North 6.2 mph 10.4 mph 67 % 0.00 in
04:40 58.0 °F 47.1 °F 30.13 in NNE 4.0 mph 6.0 mph 67 % 0.00 in
04:45 57.9 °F 47.4 °F 30.14 in North 3.8 mph 6.9 mph 68 % 0.00 in
04:50 57.7 °F 47.6 °F 30.14 in NE 4.1 mph 10.4 mph 69 % 0.00 in
04:55 57.6 °F 47.9 °F 30.14 in NE 4.2 mph 5.8 mph 70 % 0.00 in
05:00 57.3 °F 48.0 °F 30.14 in NNE 0.2 mph 2.3 mph 71 % 0.00 in
05:05 57.2 °F 49.0 °F 30.14 in NE 1.4 mph 3.5 mph 74 % 0.00 in
05:10 57.0 °F 49.2 °F 30.14 in NE 0.5 mph 2.3 mph 75 % 0.00 in
05:15 56.8 °F 49.3 °F 30.14 in NE 0.5 mph 3.5 mph 76 % 0.00 in
05:20 56.5 °F 48.7 °F 30.14 in Calm   1.2 mph 75 % 0.00 in
05:25 56.2 °F 48.7 °F 30.15 in NNE 0.8 mph 3.5 mph 76 % 0.00 in
05:30 55.9 °F 48.1 °F 30.15 in Calm   1.2 mph 75 % 0.00 in
05:35 55.7 °F 48.2 °F 30.15 in NNE 2.3 mph 4.6 mph 76 % 0.00 in
05:40 55.4 °F 47.6 °F 30.15 in NNE 1.3 mph 3.0 mph 75 % 0.00 in
05:45 55.1 °F 47.3 °F 30.15 in NNE 0.2 mph 1.2 mph 75 % 0.00 in
05:51 54.9 °F 47.1 °F 30.15 in NNE 1.0 mph 6.0 mph 75 % 0.00 in
05:56 54.6 °F 46.1 °F 30.16 in NNE 5.0 mph 9.0 mph 73 % 0.00 in
06:01 54.4 °F 45.6 °F 30.17 in NNE 2.6 mph 6.9 mph 72 % 0.00 in
06:06 54.4 °F 45.9 °F 30.17 in NNE 2.0 mph 7.0 mph 73 % 0.00 in
06:11 54.5 °F 46.0 °F 30.16 in North 6.4 mph 10.4 mph 73 % 0.00 in
06:16 54.5 °F 44.9 °F 30.17 in North 4.7 mph 9.2 mph 70 % 0.00 in
06:21 54.6 °F 45.4 °F 30.18 in NNE 3.0 mph 7.0 mph 71 % 0.00 in
06:26 54.7 °F 45.8 °F 30.17 in NNE 3.8 mph 5.8 mph 72 % 0.00 in
06:31 54.8 °F 46.3 °F 30.18 in NNE 2.0 mph 7.0 mph 73 % 0.00 in
06:36 54.9 °F 46.8 °F 30.18 in NNE 2.0 mph 7.0 mph 74 % 0.00 in
06:41 55.0 °F 47.2 °F 30.18 in NNE 0.6 mph 1.2 mph 75 % 0.00 in
06:46 55.1 °F 47.3 °F 30.18 in NE 1.0 mph 4.0 mph 75 % 0.00 in
06:51 55.2 °F 47.8 °F 30.19 in ENE 1.0 mph 2.0 mph 76 % 0.00 in
06:56 55.3 °F 47.8 °F 30.19 in NE 1.0 mph 4.0 mph 76 % 0.00 in
07:01 55.3 °F 47.2 °F 30.19 in North 4.8 mph 8.1 mph 74 % 0.00 in
07:06 55.3 °F 46.8 °F 30.19 in NNE 1.0 mph 8.0 mph 73 % 0.00 in
07:11 55.3 °F 47.2 °F 30.19 in North 3.0 mph 4.6 mph 74 % 0.00 in
07:16 55.3 °F 47.6 °F 30.19 in NNE 2.0 mph 7.0 mph 75 % 0.00 in
07:21 55.6 °F 47.4 °F 30.19 in NNE 2.7 mph 5.8 mph 74 % 0.00 in
07:26 55.8 °F 46.9 °F 30.20 in NNE 2.0 mph 5.8 mph 72 % 0.00 in
07:31 55.9 °F 47.4 °F 30.20 in NE 0.9 mph 3.5 mph 73 % 0.00 in
07:36 56.0 °F 47.5 °F 30.19 in NE 1.4 mph 3.5 mph 73 % 0.00 in
07:42 56.2 °F 47.3 °F 30.19 in NNE 1.4 mph 3.5 mph 72 % 0.00 in
07:47 56.4 °F 47.1 °F 30.19 in NNE 2.0 mph 3.5 mph 71 % 0.00 in
07:52 56.6 °F 47.3 °F 30.19 in ENE 1.5 mph 3.5 mph 71 % 0.00 in
07:57 56.7 °F 48.1 °F 30.19 in North 1.0 mph 3.0 mph 73 % 0.00 in
08:02 56.8 °F 47.9 °F 30.21 in NNE 1.9 mph 3.5 mph 72 % 0.00 in
08:07 56.8 °F 46.7 °F 30.21 in ENE 1.0 mph 2.3 mph 69 % 0.00 in
08:12 56.9 °F 47.2 °F 30.22 in NNE 1.7 mph 3.5 mph 70 % 0.00 in
08:17 56.8 °F 46.3 °F 30.21 in ENE 1.7 mph 3.5 mph 68 % 0.00 in
08:22 56.8 °F 46.7 °F 30.21 in ENE 1.9 mph 4.6 mph 69 % 0.00 in
08:27 56.6 °F 45.8 °F 30.21 in East 3.0 mph 4.6 mph 67 % 0.00 in
08:32 56.5 °F 46.8 °F 30.21 in ENE 0.7 mph 2.3 mph 70 % 0.00 in
08:38 56.4 °F 46.0 °F 30.21 in NE 4.3 mph 6.9 mph 68 % 0.00 in
08:43 56.3 °F 46.6 °F 30.22 in ENE 0.4 mph 4.6 mph 70 % 0.00 in
08:48 56.3 °F 47.4 °F 30.22 in ENE 2.4 mph 3.5 mph 72 % 0.00 in
08:53 56.3 °F 47.0 °F 30.22 in ENE 1.4 mph 3.5 mph 71 % 0.00 in
08:58 56.3 °F 47.4 °F 30.22 in ENE 1.5 mph 3.5 mph 72 % 0.00 in
09:03 56.4 °F 47.1 °F 30.22 in East 1.8 mph 3.5 mph 71 % 0.00 in
09:08 56.4 °F 46.0 °F 30.23 in East 1.7 mph 3.0 mph 68 % 0.00 in
09:13 56.5 °F 46.8 °F 30.23 in ENE 2.2 mph 3.5 mph 70 % 0.00 in
09:18 56.6 °F 46.5 °F 30.23 in ENE 1.3 mph 2.3 mph 69 % 0.00 in
09:23 56.6 °F 46.5 °F 30.23 in East 1.9 mph 3.5 mph 69 % 0.00 in
09:28 56.6 °F 47.3 °F 30.23 in East 1.7 mph 3.5 mph 71 % 0.00 in
09:33 56.6 °F 46.5 °F 30.22 in ENE 3.2 mph 4.6 mph 69 % 0.00 in
09:38 56.7 °F 47.0 °F 30.22 in ENE 2.3 mph 4.6 mph 70 % 0.00 in
09:43 56.9 °F 47.6 °F 30.21 in East 3.5 mph 5.0 mph 71 % 0.00 in
09:49 57.2 °F 47.9 °F 30.21 in ENE 3.2 mph 4.6 mph 71 % 0.00 in
09:54 58.0 °F 48.3 °F 30.21 in ENE 3.7 mph 9.0 mph 70 % 0.00 in
09:59 58.7 °F 47.0 °F 30.21 in ENE 4.1 mph 6.9 mph 65 % 0.00 in
10:04 59.4 °F 48.4 °F 30.21 in ENE 2.8 mph 6.0 mph 67 % 0.00 in
10:09 59.9 °F 48.1 °F 30.22 in ENE 3.6 mph 6.9 mph 65 % 0.00 in
10:14 60.0 °F 47.4 °F 30.22 in ENE 2.5 mph 3.5 mph 63 % 0.00 in
10:19 59.8 °F 47.2 °F 30.21 in NE 5.0 mph 9.2 mph 63 % 0.00 in
10:24 59.0 °F 46.0 °F 30.22 in ENE 4.3 mph 7.0 mph 62 % 0.00 in
10:29 58.5 °F 46.8 °F 30.22 in NE 4.5 mph 8.1 mph 65 % 0.00 in
10:34 58.0 °F 46.3 °F 30.21 in ENE 4.9 mph 7.0 mph 65 % 0.00 in
10:40 57.6 °F 47.1 °F 30.21 in ENE 1.7 mph 7.0 mph 68 % 0.00 in
10:45 57.6 °F 47.1 °F 30.21 in ENE 2.9 mph 6.9 mph 68 % 0.00 in
10:50 57.5 °F 46.6 °F 30.20 in ENE 2.1 mph 8.1 mph 67 % 0.00 in
10:55 57.4 °F 47.3 °F 30.20 in ENE 1.2 mph 3.5 mph 69 % 0.00 in
11:00 57.4 °F 46.9 °F 30.20 in ENE 1.7 mph 3.0 mph 68 % 0.00 in
11:05 57.6 °F 46.7 °F 30.20 in ENE 1.6 mph 4.0 mph 67 % 0.00 in
11:10 57.8 °F 47.3 °F 30.20 in ENE 0.4 mph 1.2 mph 68 % 0.00 in
11:15 58.2 °F 48.1 °F 30.20 in ENE 1.0 mph 2.3 mph 69 % 0.00 in
11:20 58.5 °F 48.0 °F 30.19 in ENE 2.0 mph 5.0 mph 68 % 0.00 in
11:25 58.6 °F 47.3 °F 30.21 in NNE 1.3 mph 3.5 mph 66 % 0.00 in
11:30 58.7 °F 47.4 °F 30.21 in NE 2.6 mph 4.6 mph 66 % 0.00 in
11:35 58.6 °F 47.7 °F 30.21 in North 1.5 mph 2.3 mph 67 % 0.00 in
11:40 58.7 °F 47.4 °F 30.20 in ENE 4.7 mph 5.8 mph 66 % 0.00 in
11:45 58.8 °F 47.5 °F 30.20 in East 2.6 mph 8.1 mph 66 % 0.00 in
11:51 59.6 °F 48.6 °F 30.20 in ENE 2.0 mph 5.0 mph 67 % 0.00 in
11:56 60.4 °F 46.9 °F 30.21 in East 6.0 mph 6.0 mph 61 % 0.00 in
12:01 60.8 °F 47.7 °F 30.20 in ENE 6.5 mph 10.4 mph 62 % 0.00 in
12:06 61.1 °F 48.0 °F 30.20 in NE 3.3 mph 7.0 mph 62 % 0.00 in
12:11 60.9 °F 48.2 °F 30.21 in East 4.2 mph 6.9 mph 63 % 0.00 in
12:16 60.7 °F 49.3 °F 30.21 in East 0.9 mph 2.3 mph 66 % 0.00 in
12:21 60.9 °F 46.5 °F 30.20 in SSE 5.0 mph 13.8 mph 59 % 0.00 in
12:26 61.2 °F 46.8 °F 30.21 in SE 5.2 mph 11.5 mph 59 % 0.00 in
12:31 61.4 °F 46.0 °F 30.21 in SSE 7.8 mph 10.4 mph 57 % 0.00 in
12:36 61.4 °F 46.0 °F 30.21 in SE 5.7 mph 8.1 mph 57 % 0.00 in
12:41 61.5 °F 46.1 °F 30.21 in ESE 3.2 mph 8.1 mph 57 % 0.00 in
12:46 61.6 °F 45.3 °F 30.22 in South 5.1 mph 11.5 mph 55 % 0.00 in
12:52 61.4 °F 44.6 °F 30.22 in SSE 3.8 mph 15.0 mph 54 % 0.00 in
12:57 61.0 °F 44.7 °F 30.22 in SSE 2.1 mph 8.0 mph 55 % 0.00 in
13:02 60.7 °F 46.3 °F 30.23 in ENE 2.1 mph 3.5 mph 59 % 0.00 in
13:07 60.5 °F 45.2 °F 30.23 in SSE 3.5 mph 5.8 mph 57 % 0.00 in
13:12 60.3 °F 45.0 °F 30.23 in SE 3.7 mph 6.9 mph 57 % 0.00 in
13:17 60.3 °F 44.5 °F 30.23 in SSE 3.1 mph 4.6 mph 56 % 0.00 in
13:22 60.2 °F 44.9 °F 30.24 in SSE 2.7 mph 9.2 mph 57 % 0.00 in
13:27 60.0 °F 44.7 °F 30.23 in SE 4.8 mph 9.2 mph 57 % 0.00 in
13:32 60.0 °F 45.2 °F 30.23 in SE 2.0 mph 5.8 mph 58 % 0.00 in
13:37 60.3 °F 46.8 °F 30.22 in East 3.1 mph 4.6 mph 61 % 0.00 in
13:43 60.6 °F 46.2 °F 30.22 in SE 3.6 mph 8.1 mph 59 % 0.00 in
13:48 60.8 °F 46.4 °F 30.21 in SSE 2.5 mph 6.0 mph 59 % 0.00 in
13:53 60.8 °F 45.5 °F 30.21 in SE 5.4 mph 10.0 mph 57 % 0.00 in
13:58 60.8 °F 45.5 °F 30.20 in East 5.2 mph 9.2 mph 57 % 0.00 in
14:03 61.0 °F 46.1 °F 30.20 in East 5.3 mph 9.2 mph 58 % 0.00 in
14:09 61.0 °F 46.6 °F 30.20 in ESE 4.2 mph 8.1 mph 59 % 0.00 in
14:14 61.1 °F 47.1 °F 30.20 in East 2.6 mph 6.9 mph 60 % 0.00 in
14:19 61.1 °F 46.2 °F 30.19 in East 1.5 mph 10.4 mph 58 % 0.00 in
14:24 61.1 °F 48.0 °F 30.19 in East 4.6 mph 5.8 mph 62 % 0.00 in
14:29 61.1 °F 47.1 °F 30.19 in East 4.3 mph 6.0 mph 60 % 0.00 in
14:34 60.9 °F 47.4 °F 30.19 in East 5.1 mph 7.0 mph 61 % 0.00 in
14:39 60.7 °F 46.7 °F 30.19 in ESE 3.9 mph 5.8 mph 60 % 0.00 in
14:44 60.4 °F 45.5 °F 30.19 in SSE 5.4 mph 9.0 mph 58 % 0.00 in
14:49 60.2 °F 44.9 °F 30.19 in SSE 4.1 mph 8.1 mph 57 % 0.00 in
14:54 59.9 °F 45.5 °F 30.19 in East 3.4 mph 5.0 mph 59 % 0.00 in
14:59 59.7 °F 45.3 °F 30.19 in SSE 3.5 mph 5.8 mph 59 % 0.00 in
15:04 59.3 °F 45.0 °F 30.20 in SE 6.3 mph 8.0 mph 59 % 0.00 in
15:10 59.0 °F 44.7 °F 30.21 in SSE 1.5 mph 5.8 mph 59 % 0.00 in
15:15 58.7 °F 44.8 °F 30.21 in SE 3.0 mph 8.1 mph 60 % 0.00 in
15:20 58.5 °F 45.1 °F 30.21 in SSE 1.3 mph 4.6 mph 61 % 0.00 in
15:25 58.3 °F 44.9 °F 30.21 in SSE 1.2 mph 3.5 mph 61 % 0.00 in
15:30 58.2 °F 45.2 °F 30.21 in SSE 3.2 mph 4.6 mph 62 % 0.00 in
15:35 58.2 °F 45.7 °F 30.21 in SE 2.1 mph 3.5 mph 63 % 0.00 in
15:40 58.1 °F 44.7 °F 30.20 in SSE 1.1 mph 5.0 mph 61 % 0.00 in
15:45 58.0 °F 45.0 °F 30.20 in SE 2.3 mph 4.6 mph 62 % 0.00 in
15:50 58.1 °F 46.0 °F 30.20 in ESE 0.8 mph 3.5 mph 64 % 0.00 in
15:55 58.1 °F 44.7 °F 30.19 in East 2.6 mph 5.8 mph 61 % 0.00 in
16:00 58.0 °F 44.6 °F 30.19 in SE 1.4 mph 6.9 mph 61 % 0.00 in
16:05 58.0 °F 44.2 °F 30.19 in SSE 3.7 mph 7.0 mph 60 % 0.00 in
16:10 57.9 °F 44.1 °F 30.19 in ESE 2.5 mph 9.2 mph 60 % 0.00 in
16:16 57.8 °F 44.4 °F 30.19 in East 3.0 mph 5.0 mph 61 % 0.00 in
16:21 57.7 °F 44.3 °F 30.20 in ESE 2.0 mph 5.0 mph 61 % 0.00 in
16:26 57.5 °F 43.7 °F 30.19 in SE 2.0 mph 5.0 mph 60 % 0.00 in
16:31 57.4 °F 43.6 °F 30.19 in SE 6.0 mph 9.0 mph 60 % 0.00 in
16:36 57.3 °F 44.0 °F 30.19 in ESE 3.0 mph 9.0 mph 61 % 0.00 in
16:41 57.1 °F 43.8 °F 30.19 in ESE 2.0 mph 4.6 mph 61 % 0.00 in
16:46 57.0 °F 44.5 °F 30.19 in ESE 2.0 mph 5.0 mph 63 % 0.00 in
16:51 56.8 °F 43.5 °F 30.19 in SE 2.0 mph 8.0 mph 61 % 0.00 in
16:56 56.6 °F 44.2 °F 30.19 in SE 1.0 mph 6.0 mph 63 % 0.00 in
17:01 56.4 °F 43.1 °F 30.19 in SSE 2.1 mph 3.5 mph 61 % 0.00 in
17:06 56.2 °F 44.2 °F 30.19 in SSE 2.5 mph 4.0 mph 64 % 0.00 in
17:12 56.1 °F 44.5 °F 30.19 in SSE 1.3 mph 3.5 mph 65 % 0.00 in
17:17 55.9 °F 45.1 °F 30.19 in ESE 1.2 mph 3.5 mph 67 % 0.00 in
17:22 55.8 °F 44.2 °F 30.19 in East 1.3 mph 3.5 mph 65 % 0.00 in
17:27 55.6 °F 44.4 °F 30.19 in East 1.2 mph 5.0 mph 66 % 0.00 in
17:32 55.5 °F 44.7 °F 30.19 in ESE 2.4 mph 3.5 mph 67 % 0.00 in
17:37 55.3 °F 44.1 °F 30.20 in ESE 0.5 mph 1.2 mph 66 % 0.00 in
17:42 55.3 °F 44.1 °F 30.20 in ESE 0.7 mph 2.0 mph 66 % 0.00 in
17:47 55.2 °F 45.2 °F 30.20 in ESE 1.8 mph 3.5 mph 69 % 0.00 in
17:52 55.1 °F 45.1 °F 30.20 in East 1.9 mph 3.5 mph 69 % 0.00 in
17:57 55.0 °F 44.6 °F 30.20 in East 2.5 mph 3.5 mph 68 % 0.00 in
18:03 54.9 °F 44.9 °F 30.20 in East 2.2 mph 3.5 mph 69 % 0.00 in
18:08 54.8 °F 44.4 °F 30.20 in ENE 1.5 mph 3.5 mph 68 % 0.00 in
18:13 54.6 °F 44.2 °F 30.21 in ENE 1.3 mph 3.5 mph 68 % 0.00 in
18:18 54.5 °F 44.2 °F 30.21 in NE 2.0 mph 3.5 mph 68 % 0.00 in
18:23 54.4 °F 44.4 °F 30.20 in East 2.5 mph 5.0 mph 69 % 0.00 in
18:28 54.2 °F 44.2 °F 30.20 in East 3.1 mph 5.0 mph 69 % 0.00 in
18:33 54.1 °F 44.2 °F 30.20 in East 2.5 mph 5.0 mph 69 % 0.00 in
18:38 54.0 °F 43.3 °F 30.20 in East 1.9 mph 4.6 mph 67 % 0.00 in
18:43 53.9 °F 43.6 °F 30.19 in East 2.4 mph 4.6 mph 68 % 0.00 in
18:48 53.8 °F 43.9 °F 30.19 in East 2.9 mph 5.8 mph 69 % 0.00 in
18:53 53.7 °F 42.6 °F 30.19 in East 3.0 mph 5.8 mph 66 % 0.00 in
18:59 53.6 °F 42.5 °F 30.19 in East 2.8 mph 3.5 mph 66 % 0.00 in
19:04 53.6 °F 42.9 °F 30.19 in ESE 0.8 mph 3.5 mph 67 % 0.00 in
19:09 53.5 °F 42.8 °F 30.19 in SE 1.0 mph 2.3 mph 67 % 0.00 in
19:14 53.5 °F 42.4 °F 30.18 in ENE 1.7 mph 3.5 mph 66 % 0.00 in
19:19 53.3 °F 41.8 °F 30.18 in ESE 1.4 mph 3.5 mph 65 % 0.00 in
19:24 53.3 °F 41.8 °F 30.18 in SE 2.4 mph 4.6 mph 65 % 0.00 in
19:29 53.2 °F 41.7 °F 30.18 in East 2.6 mph 3.5 mph 65 % 0.00 in
19:34 53.0 °F 41.9 °F 30.18 in ESE 1.7 mph 4.6 mph 66 % 0.00 in
19:39 52.9 °F 42.2 °F 30.18 in ESE 0.9 mph 3.5 mph 67 % 0.00 in
19:44 52.9 °F 41.8 °F 30.19 in Calm   3.5 mph 66 % 0.00 in
19:50 52.8 °F 41.7 °F 30.20 in Calm     66 % 0.00 in
19:55 52.8 °F 41.7 °F 30.19 in Calm     66 % 0.00 in
20:00 52.8 °F 41.7 °F 30.19 in SSE 5.1 mph 8.1 mph 66 % 0.00 in
20:05 52.7 °F 41.7 °F 30.18 in ESE 0.2 mph 1.2 mph 66 % 0.00 in
20:10 52.6 °F 41.6 °F 30.17 in ESE 2.0 mph 4.6 mph 66 % 0.00 in
20:15 52.5 °F 41.1 °F 30.18 in SE 2.1 mph 6.9 mph 65 % 0.00 in
20:20 52.4 °F 41.0 °F 30.17 in ESE 0.9 mph 3.0 mph 65 % 0.00 in
20:25 52.3 °F 41.3 °F 30.17 in ESE 0.8 mph 2.3 mph 66 % 0.00 in
20:30 52.2 °F 40.8 °F 30.16 in SSE 3.5 mph 8.0 mph 65 % 0.00 in
20:35 52.1 °F 40.7 °F 30.16 in SSE 4.1 mph 9.2 mph 65 % 0.00 in
20:40 52.1 °F 41.1 °F 30.17 in SE 3.1 mph 5.0 mph 66 % 0.00 in
20:45 52.0 °F 41.4 °F 30.16 in ESE 2.1 mph 4.6 mph 67 % 0.00 in
20:51 51.9 °F 41.3 °F 30.16 in ESE 5.0 mph 8.0 mph 67 % 0.00 in
20:56 51.8 °F 41.6 °F 30.16 in ESE 1.0 mph 5.0 mph 68 % 0.00 in
21:01 51.7 °F 42.2 °F 30.16 in ESE 2.0 mph 4.6 mph 70 % 0.00 in
21:06 51.6 °F 41.8 °F 30.17 in ESE 2.2 mph 5.8 mph 69 % 0.00 in
21:11 51.6 °F 42.1 °F 30.17 in SSE 0.2 mph 1.2 mph 70 % 0.00 in
21:16 51.5 °F 42.0 °F 30.17 in East 0.7 mph 2.3 mph 70 % 0.00 in
21:21 51.5 °F 42.8 °F 30.17 in ESE 1.3 mph 3.5 mph 72 % 0.00 in
21:26 51.5 °F 43.1 °F 30.18 in ESE 0.3 mph 2.3 mph 73 % 0.00 in
21:31 51.4 °F 42.7 °F 30.17 in SE 0.7 mph 2.3 mph 72 % 0.00 in
21:36 51.4 °F 43.0 °F 30.17 in SE 0.1 mph 1.2 mph 73 % 0.00 in
21:41 51.4 °F 43.0 °F 30.17 in SE 1.4 mph 2.3 mph 73 % 0.00 in
21:46 51.4 °F 43.0 °F 30.18 in ESE 0.4 mph 3.5 mph 73 % 0.00 in
21:51 51.3 °F 42.9 °F 30.17 in ESE 1.8 mph 3.5 mph 73 % 0.00 in
21:57 51.3 °F 43.3 °F 30.17 in ESE 0.7 mph 2.3 mph 74 % 0.00 in
22:02 51.3 °F 43.3 °F 30.18 in Calm   1.2 mph 74 % 0.00 in
22:07 51.3 °F 43.3 °F 30.17 in ESE 0.9 mph 2.3 mph 74 % 0.00 in
22:12 51.3 °F 43.6 °F 30.17 in ESE 0.2 mph 1.2 mph 75 % 0.00 in
22:17 51.3 °F 43.6 °F 30.17 in ESE 0.5 mph 1.2 mph 75 % 0.00 in
22:18 51.3 °F 43.6 °F 30.17 in ESE 0.8 mph 1.2 mph 75 % 0.00 in
22:23 51.2 °F 43.5 °F 30.16 in ESE 0.9 mph 2.3 mph 75 % 0.00 in
22:29 51.2 °F 43.2 °F 30.16 in ESE 0.9 mph 2.3 mph 74 % 0.00 in
22:34 51.2 °F 43.5 °F 30.16 in East 0.3 mph 1.2 mph 75 % 0.00 in
22:39 51.2 °F 43.9 °F 30.15 in East 1.6 mph 2.3 mph 76 % 0.00 in
22:44 51.2 °F 43.9 °F 30.15 in East 2.7 mph 3.5 mph 76 % 0.00 in
22:49 51.1 °F 43.8 °F 30.15 in East 1.7 mph 3.0 mph 76 % 0.00 in
22:54 51.1 °F 44.1 °F 30.14 in East 1.4 mph 2.3 mph 77 % 0.00 in
22:59 51.0 °F 43.7 °F 30.12 in East 3.3 mph 5.0 mph 76 % 0.00 in
23:04 51.0 °F 43.7 °F 30.13 in ESE 1.3 mph 2.3 mph 76 % 0.00 in
23:09 51.0 °F 44.4 °F 30.14 in ENE 3.0 mph 4.6 mph 78 % 0.00 in
23:14 51.0 °F 44.4 °F 30.14 in ENE 1.2 mph 2.3 mph 78 % 0.00 in
23:19 51.0 °F 44.7 °F 30.13 in ENE 2.3 mph 3.5 mph 79 % 0.00 in
23:24 50.9 °F 44.6 °F 30.13 in East 2.2 mph 3.5 mph 79 % 0.00 in
23:29 50.9 °F 44.6 °F 30.13 in East 2.1 mph 4.6 mph 79 % 0.00 in
23:34 50.9 °F 44.6 °F 30.13 in East 0.8 mph 2.3 mph 79 % 0.00 in
23:40 50.9 °F 44.6 °F 30.14 in East 1.2 mph 2.3 mph 79 % 0.00 in
23:44 50.9 °F 44.6 °F 30.14 in East 0.7 mph 2.3 mph 79 % 0.00 in
23:50 50.8 °F 44.9 °F 30.14 in ENE 2.3 mph 2.3 mph 80 % 0.00 in
23:55 50.8 °F 44.9 °F 30.14 in ENE 0.8 mph 3.5 mph 80 % 0.00 in
23:56 50.8 °F 44.9 °F 30.14 in ENE 0.8 mph 2.3 mph 80 % 0.00 in
Crab Meadow Weather
Compliments of Weather Underground - 3 mb

Script developed by  Jim McMurry - jmcmurry@mwt.net Adapted for the template by  Wim van der Kuil - Leuven-Template.eu

Extremes: Currently the driest state is Nevada with an annual rainfall of only nine inches.